Regional Weather Roundup
Issued by NWS

Home | Current Version | Previous Version | Graphics & Text | Print | Product List | Glossary On
Versions: 1 2 3 4 5 6 7 8 9 10 11 12 13 14 15 16 17 18 19 20 21 22 23 24 25 26 27 28 29 30 31 32 33 34 35 36 37 38 39 40 41 42 43 44 45 46 47 48 49 50
000
ASUS45 KBOU 300010
RWRCO

WEATHER ROUNDUP FOR COLORADO
NATIONAL WEATHER SERVICE PUEBLO CO
600 PM MDT WED JUL 29 2015

NOTE: "FAIR" INDICATES FEW OR NO CLOUDS BELOW 12000 FEET WITH NO
SIGNIFICANT WEATHER AND/OR OBSTRUCTIONS TO VISIBILITY.

COZ001>005-013-030-031-300100-
...NORTHWEST COLORADO...

CITY           SKY/WX    TMP DP  RH WIND       PRES   REMARKS
CRAIG          SUNNY     86  20   9 NW8G20    30.29F
HAYDEN         SUNNY     82  19   9 W8G17     30.32S
MEEKER         MOSUNNY   85  19   9 VRB7      30.30F
MOUNT WERNER   NOT AVBL
STEAMBOAT SPGS FAIR      79  21  11 SW5       30.34S
WALDEN         FAIR      73  16  11 SW6       30.43F
$$

COZ006>008-011-300100-
...WEST CENTRAL VALLEYS...

CITY           SKY/WX    TMP DP  RH WIND       PRES   REMARKS
GRAND JUNCTION MOSUNNY   90  24   9 W6        30.14F
MONTROSE       MOSUNNY   87  31  13 NW14      30.23F
EAGLE          MOSUNNY   84  21  10 S15       30.29F
RIFLE          PTSUNNY   91  27  10 N5        30.19F
DELTA          NOT AVBL
NUCLA          FAIR      88  28  11 NW13      30.25F
$$

COZ017>023-064>068-300100-
...SOUTHWEST COLORADO...

CITY           SKY/WX    TMP DP  RH WIND       PRES   REMARKS
DURANGO        CLOUDY    72  45  37 E8        30.33F
CORTEZ         SUNNY     82  42  24 SE9       30.24F
PAGOSA SPRINGS PTSUNNY   70  42  36 E9        30.42S
TELLURIDE      MOSUNNY   72  24  16 NW3       30.51S
WOLF CREEK PAS NOT AVBL
$$

COZ009-010-012-014-032>034-037-058>063-300100-
...CENTRAL COLORADO...

CITY           SKY/WX    TMP DP  RH WIND       PRES   REMARKS
ASPEN          MOSUNNY   78  33  19 NW9G21    30.38S
BUENA VISTA    FAIR      74  47  37 S18G26    30.37S
COPPER MTN     MOSUNNY   64  19  17 W25       30.72F
BERTHOUD PASS  CLOUDY    50  37  62 E13       30.78F
COTTONWOOD PAS MOSUNNY   75  43  31 SE8       30.52S
GUNNISON       MOSUNNY   79  21  11 W8        30.38F
KREMMLING      MOSUNNY   79  21  11 N12       30.36F
LEADVILLE      MOSUNNY   71  26  18 NW12      30.52F
MONARCH PASS   CLOUDY    61  36  39 SW6       30.82S
SALIDA         FAIR      76  51  41 SE17G26   30.42S
NIWOT RIDGE    NOT AVBL
SUNLIGHT       PTSUNNY   64  32  29 CALM      30.67S
WILKERSON PASS LGT RAIN  52  45  76 E8G17     30.72R
$$

COZ069>075-300100-
...SAN LUIS VALLEY/SANGRE DE CRISTO MOUNTAINS...

CITY           SKY/WX    TMP DP  RH WIND       PRES   REMARKS
ALAMOSA        PTSUNNY   69  47  45 SE16      30.40S
LA VETA PASS   CLOUDY    50  45  81 MISG      30.61F
SAGUACHE       PTSUNNY   73  48  40 SE17      30.40R
$$

COZ035-036-038>040-300100-
...NORTHERN COLORADO FRONT RANGE...

CITY           SKY/WX    TMP DP  RH WIND       PRES   REMARKS
DENVER INTL AP MOSUNNY   84  45  25 SE16G22   30.24S
DMNS CITY PARK NOT AVBL
AURORA         PTSUNNY   82  49  30 S14G21    30.27R
FRONT RANGE AP NOT AVBL
ERIE MUNI ARPT CLOUDY    84  45  25 SE8       30.21R
BOULDER MUN AP FAIR      84  50  30 NW6       30.22S
CENTENNIAL     PTSUNNY   78  50  37 S16       30.28R
BROOMFIELD     PTSUNNY   82  46  28 SE8       30.25
LOVELAND       MOSUNNY   82  50  32 SE12      30.18F
LONGMONT       FAIR      89  47  23 NW5       30.21F
$$

COZ041-046-047-076>085-087-088-300100-
...PIKES PEAK/PALMER DIVIDE AND SOUTHERN FOOTHILLS...

CITY           SKY/WX    TMP DP  RH WIND       PRES   REMARKS
COLO. SPRINGS  PTSUNNY   77  48  35 SE15      30.34S
A. F. ACADEMY  NOT AVBL
ELLICOTT       FAIR     N/A N/A N/A S12G20    30.34S
FALCON         FAIR      71  47  42 S13       30.40S
FORT CARSON    MOSUNNY   80  50  35 SE12      30.31S
LIMON          SUNNY     77  45  32 SE14G22   30.30S
MONUMENT HILL  NOT AVBL
TRINIDAD       LGT RAIN  63  59  87 SW14      30.36R
$$

COZ042>045-048>051-090-091-300100-
...NORTHEAST COLORADO...

CITY           SKY/WX    TMP DP  RH WIND       PRES   REMARKS
GREELEY ARPT   SUNNY     88  50  27 SE10      30.21S
AKRON          SUNNY     80  44  27 SE18G28   30.26F
BURLINGTON     SUNNY     79  45  29 SE12      30.26F
WRAY           FAIR      83  40  21 SE13      30.23S
STERLING       FAIR      82  46  28 S13G18    30.20F
HOLYOKE        FAIR      84  45  24 S12       30.23F
FORT MORGAN    FAIR      83  46  27 SE12      30.23F
$$

COZ086-089-092>099-300100-
...SOUTHEAST COLORADO...

CITY           SKY/WX    TMP DP  RH WIND       PRES   REMARKS
PUEBLO         PTSUNNY   87  49  26 SE17      30.22S
LA JUNTA       PTSUNNY   87  49  26 SE14      30.21F
LAMAR          MOSUNNY   85  54  34 SE8       30.19F
SPRINGFIELD      N/A     80  55  42 SE8       30.24S
$$



USA.gov is the U.S. government's official web portal to all federal, state and local government web resources and services.